FW9372 Weather Reports


Display with metric or nautical units.
time (UTC)temp
F
wind
direction
speed
MPH
gust
MPH
rain 1hr
in
rain 24hr
in
rain mn
in
humidity
%
barometer
mb
20260502190059 53 0 0.0 0.0 0.00 0.00 0.00 65 1016.3
20260502184601 54 0 0.0 0.0 0.00 0.00 0.00 63 1016.4
20260502183108 53 0 0.0 0.0 0.00 0.00 0.00 60 1016.4
20260502181559 53 0 0.0 0.0 0.00 0.00 0.00 61 1016.5
20260502163104 50 0 0.0 0.0 0.00 0.00 0.00 79 1017.1
20260502161601 50 0 0.0 6.0 0.00 0.00 0.00 73 1017.3
20260502151609 51 0 0.0 0.0 0.00 0.00 0.00 72 1016.9
20260502123058 41 0 0.0 0.0 0.00 0.00 0.00 97 1016.1
20260502121557 41 0 0.0 0.0 0.00 0.00 0.00 97 1016.0
20260502114609 39 0 0.0 0.0 0.00 0.00 0.00 97 1015.5
20260502113057 38 0 0.0 0.0 0.00 0.00 0.00 97 1015.5
20260502111559 38 0 0.0 0.0 0.00 0.00 0.00 97 1015.4
20260502104558 36 0 0.0 0.0 0.00 0.00 0.00 96 1015.1
20260502103108 36 0 0.0 0.0 0.00 0.00 0.00 96 1014.8
20260502101626 35 0 0.0 0.0 0.00 0.00 0.00 96 1014.8
20260502090113 35 0 0.0 0.0 0.00 0.00 0.00 96 1015.1
20260502080109 35 0 0.0 0.0 0.00 0.00 0.00 95 1014.9
20260502070137 36 0 0.0 0.0 0.00 0.00 0.00 95 1015.0
20260502064600 36 0 0.0 0.0 0.00 0.00 0.00 94 1015.1
20260502063106 36 0 0.0 0.0 0.00 0.00 0.00 95 1015.3
20260502061609 36 0 0.0 0.0 0.00 0.00 0.00 94 1015.3
20260502054600 37 0 0.0 0.0 0.00 0.00 0.00 94 1015.3
20260502053055 37 0 0.0 0.0 0.00 0.00 0.00 94 1015.5
20260502051627 37 0 0.0 0.0 0.00 0.00 0.00 93 1015.5
20260502050056 37 0 0.0 0.0 0.00 0.00 0.00 93 1015.5
20260502044555 38 0 0.0 0.0 0.00 0.00 0.00 93 1015.4
20260502043104 38 0 0.0 0.0 0.00 0.00 0.00 93 1015.6
20260502041557 38 0 0.0 0.0 0.00 0.00 0.00 92 1015.8
20260502034556 39 0 0.0 0.0 0.00 0.00 0.00 90 1015.8
20260502033100 40 0 0.0 0.0 0.00 0.00 0.00 90 1015.9
20260502031558 40 0 0.0 0.0 0.00 0.00 0.00 89 1016.0
20260502030104 41 0 0.0 0.0 0.00 0.00 0.00 88 1015.9
20260502024600 41 0 0.0 0.0 0.00 0.00 0.00 88 1015.9
20260502023126 42 0 0.0 0.0 0.00 0.00 0.00 85 1015.8
20260502021604 43 0 0.0 0.0 0.00 0.00 0.00 84 1015.8
20260502020112 44 0 0.0 0.0 0.00 0.00 0.00 81 1015.4
20260502014600 45 0 0.0 0.0 0.00 0.00 0.00 78 1015.3
20260502013113 46 0 0.0 0.0 0.00 0.00 0.00 77 1015.0
20260502011607 46 0 0.0 0.0 0.00 0.00 0.00 74 1014.6
20260502010101 48 0 0.0 0.0 0.00 0.00 0.00 71 1014.4
20260502004621 50 0 0.0 0.0 0.00 0.00 0.00 67 1014.2
20260502003059 52 0 0.0 0.0 0.00 0.00 0.00 65 1014.1
20260502001609 54 0 0.0 0.0 0.00 0.00 0.00 59 1014.2
20260502000104 55 0 0.0 0.0 0.00 0.00 0.00 53 1013.9
20260501234609 56 0 0.0 0.0 0.00 0.00 0.00 51 1013.5
20260501233059 57 0 0.0 0.0 0.00 0.00 0.00 51 1012.9
20260501231556 57 19 0.0 7.0 0.00 0.00 0.00 49 1013.0
20260501230056 57 21 0.0 10.0 0.00 0.00 0.00 49 1013.2
20260501224557 58 0 0.0 2.0 0.00 0.00 0.00 49 1013.1
20260501223058 57 314 1.0 11.0 0.00 0.00 0.00 51 1013.1
20260501221556 59 37 0.0 6.0 0.00 0.00 0.00 48 1013.0
20260501220137 58 0 0.0 9.0 0.00 0.00 0.00 49 1013.3
20260501214555 61 14 0.0 9.0 0.00 0.00 0.00 46 1013.2
20260501213103 60 0 0.0 10.0 0.00 0.00 0.00 47 1013.3
20260501211555 60 0 0.0 8.0 0.00 0.00 0.00 53 1013.1
20260501210117 59 0 1.0 8.0 0.00 0.00 0.00 48 1013.4
20260501204559 60 21 0.0 4.0 0.00 0.00 0.00 47 1013.4
20260501203102 61 39 1.0 9.0 0.00 0.00 0.00 48 1013.4
20260501201604 60 15 0.0 9.0 0.00 0.00 0.00 47 1013.8
20260501200057 61 238 0.0 7.0 0.00 0.00 0.00 46 1013.7
20260501194557 61 0 0.0 4.0 0.00 0.00 0.00 47 1013.7
20260501193058 60 281 0.0 6.0 0.00 0.00 0.00 47 1013.9
20260501191603 59 0 1.0 9.0 0.00 0.00 0.00 51 1013.8